Weather History for Sauk Centre, MN

Change the Weather History Date:

Friday, January 31, 2014

  Actual Average (KGHW) Record (KGHW)
Temperature  
Mean Temperature -6 °F -  
Max Temperature 5 °F 25 °F 45 °F (1989)
Min Temperature -18 °F 3 °F -37 °F (1951)
Degree Days  
Heating Degree Days 72    
Moisture  
Dew Point -11 °F    
Average Humidity 78    
Maximum Humidity 88    
Minimum Humidity 64    
Precipitation  
Precipitation 0.00 in - - ()
Sea Level Pressure  
Sea Level Pressure 29.99 in    
Wind  
Wind Speed 7 mph (SSW)    
Max Wind Speed 10 mph    
Max Gust Speed -    
Visibility 10 miles    
Events      
Averages and records for this station are not official NWS values.
T = Trace of Precipitation, MM = Missing Value Source: NWS Daily Summary

Daily Weather History Graph

Daily Weather History Graph

Search for Another Location

Airport:

Trip Planner

Search our weather history database for the weather conditions in past years. The results will help you decide how hot, cold, wet, or windy it might be!

Date:

Astronomy

Jan. 31, 2014 Rise Set
Actual Time 7:42 AM CST 5:24 PM CST
Civil Twilight 7:10 AM CST 5:56 PM CST
Nautical Twilight 6:34 AM CST 6:32 PM CST
Astronomical Twilight 6:00 AM CST 7:06 PM CST
Moon 7:47 AM CST (1/31) 6:56 PM CST (1/31)
Length of Visible Light 10h 45m
Length of Day
9h 42m
New Moon, 1% of the Moon is Illuminated
Jan 31
New Moon
Feb 6
First Quarter
Feb 14
Full
Feb 22
Last Quarter
Mar 1
New

Hourly Weather History & Observations

Time (CST) Temp. Windchill Dew Point Humidity Pressure Visibility Wind Dir Wind Speed Gust Speed Precip Events Conditions
12:12 AM -12.3 °F -27.7 °F -16.6 °F 81% 30.01 in 10.0 mi West 6.9 mph - N/A   Clear
12:33 AM -13.0 °F -31.3 °F -18.0 °F 78% 30.01 in 10.0 mi West 9.2 mph - N/A   Clear
12:52 AM -12.8 °F -31.0 °F -18.2 °F 77% 30.01 in 10.0 mi West 9.2 mph - N/A   Clear
1:12 AM -13.4 °F -27.4 °F -18.8 °F 77% 30.02 in 10.0 mi WSW 5.8 mph - N/A   Clear
1:33 AM -13.4 °F -30.4 °F -18.8 °F 77% 30.01 in 10.0 mi West 8.1 mph - N/A   Clear
1:52 AM -13.9 °F -28.1 °F -19.3 °F 77% 30.01 in 10.0 mi WSW 5.8 mph - N/A   Clear
2:12 AM -14.3 °F -26.5 °F -19.3 °F 78% 30.01 in 10.0 mi West 4.6 mph - N/A   Clear
2:33 AM -14.8 °F -33.5 °F -19.5 °F 79% 30.02 in 10.0 mi West 9.2 mph - N/A   Clear
2:52 AM -13.9 °F -31.1 °F -18.6 °F 80% 30.02 in 10.0 mi WSW 8.1 mph - N/A   Clear
3:12 AM -13.9 °F -28.1 °F -18.4 °F 80% 30.02 in 10.0 mi WSW 5.8 mph - N/A   Clear
3:33 AM -14.1 °F -29.9 °F -18.6 °F 80% 30.03 in 10.0 mi WSW 6.9 mph - N/A   Clear
3:52 AM -13.5 °F -30.7 °F -18.0 °F 80% 30.03 in 10.0 mi West 8.1 mph - N/A   Clear
4:13 AM -13.5 °F -29.3 °F -18.4 °F 79% 30.02 in 10.0 mi West 6.9 mph - N/A   Clear
4:33 AM -14.3 °F -30.1 °F -18.9 °F 79% 30.03 in 10.0 mi WSW 6.9 mph - N/A   Clear
4:52 AM -14.8 °F -30.8 °F -19.3 °F 80% 30.03 in 10.0 mi SW 6.9 mph - N/A   Clear
5:12 AM -15.5 °F -31.6 °F -20.0 °F 80% 30.02 in 10.0 mi WSW 6.9 mph - N/A   Clear
5:33 AM -15.7 °F -30.2 °F -20.2 °F 80% 30.01 in 10.0 mi West 5.8 mph - N/A   Clear
5:52 AM -15.9 °F -30.4 °F -20.6 °F 79% 30.01 in 10.0 mi WSW 5.8 mph - N/A   Clear
6:13 AM -16.8 °F -33.2 °F -21.5 °F 79% 30.01 in 10.0 mi West 6.9 mph - N/A   Clear
6:32 AM -17.9 °F -30.7 °F -22.4 °F 80% 30.02 in 10.0 mi WSW 4.6 mph - N/A   Clear
6:52 AM -18.4 °F -35.1 °F -22.9 °F 80% 30.02 in 10.0 mi West 6.9 mph - N/A   Clear
7:12 AM -16.6 °F -32.9 °F -20.7 °F 81% 30.02 in 10.0 mi WSW 6.9 mph - N/A   Clear
7:32 AM -17.0 °F -29.7 °F -21.3 °F 81% 30.03 in 10.0 mi SW 4.6 mph - N/A   Clear
7:53 AM -16.4 °F -32.7 °F -20.7 °F 81% 30.03 in 10.0 mi SW 6.9 mph - N/A   Clear
8:12 AM -15.7 °F -28.2 °F -20.2 °F 80% 30.03 in 10.0 mi WSW 4.6 mph - N/A   Clear
8:32 AM -15.3 °F -27.8 °F -19.7 °F 81% 30.03 in 10.0 mi WSW 4.6 mph - N/A   Clear
8:53 AM -12.8 °F -26.8 °F -17.0 °F 82% 30.02 in 10.0 mi West 5.8 mph - N/A   Clear
9:12 AM -9.8 °F -24.7 °F -14.8 °F 78% 30.03 in 10.0 mi West 6.9 mph - N/A   Clear
9:32 AM -8.1 °F -25.3 °F -13.9 °F 76% 30.03 in 10.0 mi West 9.2 mph - N/A   Clear
9:53 AM -6.9 °F -24.8 °F -13.2 °F 74% 30.04 in 10.0 mi West 10.4 mph - N/A   Clear
10:12 AM -6.3 °F -20.6 °F -13.2 °F 72% 30.04 in 10.0 mi WSW 6.9 mph - N/A   Clear
10:32 AM -5.1 °F -19.1 °F -12.3 °F 71% 30.05 in 10.0 mi West 6.9 mph - N/A   Clear
10:53 AM -3.6 °F -14.1 °F -11.6 °F 69% 30.05 in 10.0 mi West 4.6 mph - N/A   Clear
11:12 AM -2.6 °F -14.6 °F -11.2 °F 67% 30.05 in 10.0 mi SW 5.8 mph - N/A   Clear
11:32 AM -1.5 °F -13.3 °F -10.3 °F 66% 30.05 in 10.0 mi SW 5.8 mph - N/A   Clear
11:53 AM -0.9 °F -12.7 °F -9.9 °F 66% 30.04 in 10.0 mi SW 5.8 mph - N/A   Clear
12:12 PM 0.1 °F -7.7 °F -9.0 °F 65% 30.03 in 10.0 mi SSW 3.5 mph - N/A   Clear
12:32 PM 1.0 °F -10.3 °F -8.5 °F 64% 30.03 in 10.0 mi South 5.8 mph - N/A   Clear
12:53 PM 2.1 °F -10.4 °F -7.1 °F 66% 30.02 in 10.0 mi South 6.9 mph - N/A   Clear
1:12 PM 3.6 °F -10.9 °F -4.9 °F 68% 30.01 in 10.0 mi SSW 9.2 mph - N/A   Clear
1:32 PM 4.1 °F -11.1 °F -4.4 °F 68% 30.00 in 10.0 mi SSW 10.4 mph - N/A   Clear
1:52 PM 4.3 °F -10.0 °F -4.2 °F 68% 30.00 in 10.0 mi SSW 9.2 mph - N/A   Clear
2:12 PM 4.1 °F -10.2 °F -4.0 °F 69% 29.99 in 10.0 mi South 9.2 mph - N/A   Clear
2:33 PM 4.1 °F -11.1 °F -3.8 °F 70% 29.99 in 10.0 mi South 10.4 mph - N/A   Clear
2:52 PM 4.8 °F -10.2 °F -3.3 °F 69% 29.97 in 10.0 mi South 10.4 mph - N/A   Clear
3:12 PM 5.4 °F -9.6 °F -2.4 °F 70% 29.97 in 10.0 mi South 10.4 mph - N/A   Clear
3:33 PM 5.9 °F -7.0 °F -1.7 °F 71% 29.97 in 10.0 mi South 8.1 mph - N/A   Clear
3:52 PM 5.7 °F -6.1 °F -1.3 °F 73% 29.96 in 10.0 mi South 6.9 mph - N/A   Clear
4:12 PM 5.5 °F -7.4 °F -1.3 °F 73% 29.96 in 10.0 mi South 8.1 mph - N/A   Clear
4:33 PM 5.0 °F -5.6 °F -1.3 °F 75% 29.95 in 10.0 mi South 5.8 mph - N/A   Clear
4:52 PM 4.6 °F -8.5 °F -1.5 °F 76% 29.94 in 10.0 mi South 8.1 mph - N/A   Clear
5:12 PM 2.5 °F -10.0 °F -3.1 °F 78% 29.94 in 10.0 mi South 6.9 mph - N/A   Clear
5:33 PM 1.2 °F -12.7 °F -3.3 °F 81% 29.93 in 10.0 mi South 8.1 mph - N/A   Clear
5:52 PM 0.3 °F -14.8 °F -4.0 °F 82% 29.93 in 10.0 mi South 9.2 mph - N/A   Clear
6:12 PM 0.5 °F -12.3 °F -3.5 °F 83% 29.93 in 10.0 mi South 6.9 mph - N/A   Clear
6:33 PM 0.1 °F -12.8 °F -4.0 °F 83% 29.93 in 10.0 mi South 6.9 mph - N/A   Clear
6:52 PM -0.8 °F -17.2 °F -4.5 °F 84% 29.94 in 10.0 mi South 10.4 mph - N/A   Clear
7:12 PM -0.8 °F -12.5 °F -4.4 °F 85% 29.94 in 10.0 mi South 5.8 mph - N/A   Clear
7:33 PM -0.4 °F -8.3 °F -4.0 °F 85% 29.94 in 10.0 mi SSE 3.5 mph - N/A   Clear
7:52 PM 0.3 °F -9.5 °F -3.1 °F 85% 29.93 in 10.0 mi SSE 4.6 mph - N/A   Clear
8:12 PM -2.4 °F -10.6 °F -5.6 °F 86% 29.93 in 10.0 mi SSE 3.5 mph - N/A   Clear
8:32 PM -1.3 °F -9.3 °F -4.0 °F 88% 29.92 in 10.0 mi SSE 3.5 mph - N/A   Clear
8:52 PM -0.9 °F - -4.0 °F 87% 29.92 in 10.0 mi Calm Calm - N/A   Clear
9:13 PM -2.7 °F -11.0 °F -5.6 °F 87% 29.92 in 10.0 mi SE 3.5 mph - N/A   Clear
9:32 PM -3.1 °F -11.4 °F -6.3 °F 86% 29.92 in 10.0 mi SE 3.5 mph - N/A   Clear
9:52 PM -2.7 °F -14.8 °F -6.0 °F 86% 29.92 in 10.0 mi SSE 5.8 mph - N/A   Mostly Cloudy
10:12 PM -0.9 °F -8.9 °F -4.2 °F 86% 29.91 in 10.0 mi SSE 3.5 mph - N/A   Overcast
10:32 PM 0.1 °F -11.4 °F -3.3 °F 85% 29.90 in 10.0 mi SSE 5.8 mph - N/A   Overcast
10:53 PM 2.5 °F -10.0 °F -0.8 °F 86% 29.89 in 10.0 mi SSE 6.9 mph - N/A   Overcast
11:12 PM 3.2 °F -11.3 °F -0.6 °F 84% 29.89 in 10.0 mi South 9.2 mph - N/A   Overcast
11:32 PM 1.9 °F -10.6 °F -1.7 °F 85% 29.89 in 10.0 mi SE 6.9 mph - N/A   Overcast
11:53 PM 2.3 °F -12.4 °F -1.3 °F 85% 29.89 in 10.0 mi SSE 9.2 mph - N/A   Overcast